Weather History for Cleveland, OH

Change the Weather History Date:

Thursday, January 17, 2013

  Actual Average Record
Temperature  
Mean Temperature 31 °F 28 °F  
Max Temperature 37 °F 34 °F 60 °F (1952)
Min Temperature 24 °F 21 °F -17 °F (1977)
Degree Days  
Heating Degree Days 34 37  
Month to date heating degree days 537 628  
Since 1 July heating degree days 2618 2735  
Cooling Degree Days 0 0  
Month to date cooling degree days 0 0  
Year to date cooling degree days 0 0  
Moisture  
Dew Point 24 °F    
Average Humidity 71    
Maximum Humidity 82    
Minimum Humidity 59    
Precipitation  
Precipitation T in 0.09 in 1.74 in (1952)
Month to date precipitation 0.93 1.59  
Year to date precipitation 0.93 1.59  
Snow  
Snow T in 0.60 in - ()
Month to date snowfall T 10.1  
Since 1 July snowfall 15.5 28.7  
Snow Depth 0.00 in    
Sea Level Pressure  
Sea Level Pressure 30.16 in    
Wind  
Wind Speed 11 mph (West)    
Max Wind Speed 25 mph    
Max Gust Speed 31 mph    
Visibility 10 miles    
Events Snow    
T = Trace of Precipitation, MM = Missing Value Source: NWS Daily Summary

Daily Weather History Graph

Daily Weather History Graph

Search for Another Location

Airport:

Trip Planner

Search our weather history database for the weather conditions in past years. The results will help you decide how hot, cold, wet, or windy it might be!

Date:

Astronomy

Jan. 17, 2013 Rise Set
Actual Time 7:50 AM EST 5:25 PM EST
Civil Twilight 7:19 AM EST 5:55 PM EST
Nautical Twilight 6:45 AM EST 6:29 PM EST
Astronomical Twilight 6:12 AM EST 7:02 PM EST
Moon 10:51 AM EST No Moon Set
Length of Visible Light 10h 35m
Length of Day
9h 35m
Waxing Crescent, 37% of the Moon is Illuminated
Jan 17
Waxing Crescent
Jan 18
First Quarter
Jan 26
Full
Feb 3
Last Quarter
Feb 10
New

Hourly Weather History & Observations

Time (EST) Temp. Windchill Dew Point Humidity Pressure Visibility Wind Dir Wind Speed Gust Speed Precip Events Conditions
12:51 AM 33.1 °F 23.4 °F 23.0 °F 66% 30.04 in 10.0 mi WSW 13.8 mph - N/A   Overcast
1:01 AM 33.1 °F 24.4 °F 23.0 °F 66% 30.02 in 10.0 mi WSW 11.5 mph - N/A   Overcast
1:51 AM 33.8 °F 24.3 °F 24.8 °F 70% 30.04 in 10.0 mi WSW 13.8 mph - N/A   Overcast
2:51 AM 33.1 °F 24.4 °F 25.0 °F 72% 30.09 in 10.0 mi WSW 11.5 mph - N/A   Overcast
3:51 AM 33.1 °F 26.1 °F 26.1 °F 75% 30.10 in 10.0 mi WSW 8.1 mph - N/A   Overcast
4:12 AM 33.1 °F 26.1 °F 26.1 °F 75% 30.08 in 10.0 mi WSW 8.1 mph - N/A   Overcast
4:51 AM 33.1 °F 27.7 °F 27.0 °F 78% 30.10 in 10.0 mi WSW 5.8 mph - N/A   Overcast
5:51 AM 33.1 °F 26.9 °F 27.0 °F 78% 30.11 in 10.0 mi WSW 6.9 mph - N/A   Overcast
6:51 AM 33.1 °F 26.9 °F 27.0 °F 78% 30.14 in 10.0 mi West 6.9 mph - N/A   Overcast
7:01 AM 33.1 °F 26.9 °F 27.0 °F 78% 30.11 in 10.0 mi West 6.9 mph - N/A   Overcast
7:47 AM 33.8 °F 27.7 °F 26.6 °F 75% 30.13 in 10.0 mi West 6.9 mph - N/A   Overcast
7:51 AM 34.0 °F 28.0 °F 27.0 °F 75% 30.15 in 10.0 mi West 6.9 mph - N/A   Overcast
8:09 AM 34.0 °F 28.8 °F 27.0 °F 75% 30.14 in 10.0 mi Variable 5.8 mph - N/A   Overcast
8:51 AM 34.0 °F 28.0 °F 28.0 °F 79% 30.19 in 10.0 mi West 6.9 mph - N/A   Overcast
9:36 AM 34.0 °F 29.8 °F 28.0 °F 79% 30.18 in 10.0 mi WSW 4.6 mph - N/A   Overcast
9:51 AM 34.0 °F 31.0 °F 28.0 °F 79% 30.21 in 10.0 mi SW 3.5 mph - N/A   Overcast
10:29 AM 35.6 °F 28.6 °F 28.4 °F 75% 30.18 in 10.0 mi WNW 9.2 mph - N/A   Overcast
10:51 AM 36.0 °F 30.3 °F 27.0 °F 70% 30.20 in 10.0 mi West 6.9 mph - N/A   Overcast
11:51 AM 36.0 °F 29.6 °F 24.1 °F 62% 30.20 in 10.0 mi WNW 8.1 mph - N/A   Overcast
12:51 PM 35.1 °F 26.9 °F 23.0 °F 61% 30.18 in 10.0 mi WNW 11.5 mph - N/A   Overcast
1:51 PM 36.0 °F 26.7 °F 25.0 °F 64% 30.14 in 10.0 mi WNW 15.0 mph - N/A   Overcast
2:51 PM 35.1 °F 26.4 °F 27.0 °F 72% 30.14 in 10.0 mi WNW 12.7 mph - N/A   Mostly Cloudy
3:51 PM 35.1 °F 27.4 °F 25.0 °F 67% 30.15 in 10.0 mi NW 10.4 mph - N/A   Scattered Clouds
4:51 PM 34.0 °F 26.0 °F 21.9 °F 61% 30.16 in 10.0 mi WNW 10.4 mph - N/A   Partly Cloudy
5:51 PM 32.0 °F 27.5 °F 23.0 °F 69% 30.16 in 10.0 mi West 4.6 mph - N/A   Mostly Cloudy
6:51 PM 32.0 °F 25.6 °F 23.0 °F 69% 30.21 in 10.0 mi SSW 6.9 mph - N/A   Mostly Cloudy
7:51 PM 33.8 °F 25.3 °F 24.8 °F 70% 30.19 in 10.0 mi West 11.5 mph - N/A   Mostly Cloudy
8:23 PM 32.0 °F 21.2 °F 23.0 °F 69% 30.20 in 10.0 mi NNW 16.1 mph 24.2 mph N/A   Overcast
8:51 PM 32.0 °F 22.5 °F 21.2 °F 64% 30.20 in 10.0 mi NW 12.7 mph - N/A   Mostly Cloudy
9:51 PM 28.9 °F 15.4 °F 18.0 °F 64% 30.26 in 10.0 mi NW 21.9 mph 28.8 mph N/A   Mostly Cloudy
10:51 PM 28.0 °F 15.7 °F 17.1 °F 63% 30.27 in 10.0 mi NW 17.3 mph 27.6 mph N/A   Overcast
11:28 PM 26.1 °F 11.3 °F 16.0 °F 66% 30.27 in 9.0 mi WNW 23.0 mph 28.8 mph 0.00 in Snow Light Snow
11:51 PM 25.0 °F 10.2 °F 15.1 °F 66% 30.30 in 9.0 mi NW 21.9 mph 31.1 mph 0.00 in Snow Light Snow